Location: San Pelegr�n
(42.1868°N, 0.0079°E)
Time: 22:00:50
(UTC+00:00)

Ariane Rocket - Pass Details

Date: 24 January 2020
Orbit: 761 x 769 km, 98.7° (Epoch: 20 February)

Event Time Altitude Azimuth Distance (km) Brightness Sun altitude
Rises 18:47:08 0° 151° (SSE) 3,213 6.0 -19.1°
Reaches altitude 10° 18:49:28 10° 146° (SE) 2,293 5.2 -19.6°
Maximum altitude 18:54:21 52° 71° (ENE) 948 3.1 -20.4°
Drops below altitude 10° 18:59:17 10° 356° (N) 2,314 5.4 -21.4°
Sets 19:01:38 0° 352° (N) 3,246 6.3 -21.8°
